FW8786 Weather Reports


time (UTC)temp
C
wind
direction
speed
KPH
gust
KPH
rain 1hr
cm
rain 24hr
cm
rain mn
cm
humidity
%
barometer
mb
20260906040044 31 0 0.0 6.4 0.00 0.00 0.00 70 1013.8
20260906034542 31 0 0.0 4.8 0.00 0.00 0.00 69 1013.7
20260906033104 31 73 0.0 6.4 0.00 0.00 0.00 68 1013.6
20260906031543 31 0 0.0 6.4 0.00 0.00 0.00 66 1013.5
20260906030046 31 0 0.0 9.7 0.00 0.00 0.00 65 1013.4
20260906024551 31 63 0.0 4.8 0.00 0.00 0.00 64 1013.2
20260906023051 30 0 0.0 6.4 0.00 0.00 0.00 64 1013.1
20260906021548 30 0 0.0 0.0 0.00 0.00 0.00 63 1013.0
20260906020103 31 0 0.0 0.0 0.00 0.00 0.00 62 1012.7
20260906014543 31 0 0.0 0.0 0.00 0.00 0.00 62 1012.7
20260906013050 31 0 0.0 0.0 0.00 0.00 0.00 60 1012.5
20260906011557 32 0 0.0 0.0 0.00 0.00 0.00 58 1012.2
20260906010044 32 0 0.0 0.0 0.00 0.00 0.00 57 1012.1
20260906004544 33 0 0.0 0.0 0.00 0.00 0.00 56 1012.1
20260906003043 34 0 0.0 3.2 0.00 0.00 0.00 54 1011.9
20260906001543 34 0 0.0 1.6 0.00 0.00 0.00 53 1012.0
20260906000055 35 0 0.0 1.6 0.00 0.00 0.00 52 1011.9
20260905234545 35 0 0.0 6.4 0.00 0.00 0.00 51 1012.1
20260905233053 35 0 0.0 8.0 0.00 0.00 0.00 50 1012.3
20260905231549 35 0 0.0 6.4 0.00 0.00 0.00 50 1012.2
20260905230054 36 0 0.0 6.4 0.00 0.00 0.00 48 1012.1
20260905224549 36 0 0.0 6.4 0.00 0.00 0.00 48 1012.0
20260905223049 36 276 1.6 9.7 0.00 0.00 0.00 48 1012.0
20260905221544 36 5 1.6 6.4 0.00 0.00 0.00 48 1012.0
20260905220043 36 0 1.6 6.4 0.00 0.00 0.00 48 1012.0
20260905214541 36 0 0.0 4.8 0.00 0.00 0.00 50 1012.0
20260905213049 36 304 0.0 11.3 0.00 0.00 0.00 48 1012.0
20260905211552 36 277 1.6 6.4 0.00 0.00 0.00 47 1012.1
20260905210047 37 300 1.6 14.5 0.00 0.00 0.00 45 1012.1
20260905204545 37 0 0.0 9.7 0.00 0.00 0.00 43 1012.2
20260905203048 37 30 3.2 16.1 0.00 0.00 0.00 42 1012.4
20260905201544 37 0 0.0 8.0 0.00 0.00 0.00 42 1012.5
20260905200042 37 5 3.2 14.5 0.00 0.00 0.00 43 1012.5
20260905194557 37 71 0.0 6.4 0.00 0.00 0.00 45 1012.7
20260905193044 37 321 1.6 14.5 0.00 0.00 0.00 43 1013.2
20260905191547 37 0 0.0 11.3 0.00 0.00 0.00 44 1013.1
20260905190043 38 315 3.2 8.0 0.00 0.00 0.00 42 1013.2
20260905184611 38 290 0.0 9.7 0.00 0.00 0.00 43 1013.4
20260905183052 38 188 1.6 12.9 0.00 0.00 0.00 46 1013.5
20260905181552 37 323 1.6 11.3 0.00 0.00 0.00 48 1013.6
20260905180048 37 205 1.6 6.4 0.00 0.00 0.00 48 1013.7
20260905174549 37 209 0.0 8.0 0.00 0.00 0.00 48 1013.8
20260905173047 37 244 1.6 9.7 0.00 0.00 0.00 48 1014.0
20260905171544 36 277 1.6 9.7 0.00 0.00 0.00 52 1014.4
20260905170043 36 246 1.6 9.7 0.00 0.00 0.00 50 1014.4
20260905164551 36 259 1.6 9.7 0.00 0.00 0.00 50 1014.5
20260905163048 36 93 1.6 8.0 0.00 0.00 0.00 52 1014.7
20260905161547 35 0 0.0 4.8 0.00 0.00 0.00 54 1014.7
20260905160047 35 0 0.0 4.8 0.00 0.00 0.00 55 1014.7
20260905154610 34 0 0.0 4.8 0.00 0.00 0.00 58 1014.9
20260905153049 33 0 0.0 6.4 0.00 0.00 0.00 59 1015.0
20260905151545 33 0 1.6 6.4 0.00 0.00 0.00 59 1015.0
20260905150041 32 0 0.0 4.8 0.00 0.00 0.00 64 1014.9
20260905144548 31 0 0.0 3.2 0.00 0.00 0.00 69 1014.8
20260905143049 30 276 0.0 4.8 0.00 0.00 0.00 69 1014.7
20260905141543 30 0 0.0 1.6 0.00 0.00 0.00 70 1014.7
20260905140045 30 0 1.6 4.8 0.00 0.00 0.00 70 1014.6
20260905134549 29 0 0.0 3.2 0.00 0.00 0.00 73 1014.6
20260905133049 27 273 0.0 3.2 0.00 0.00 0.00 77 1014.5
20260905131546 27 0 0.0 1.6 0.00 0.00 0.00 81 1014.4
20260905130047 26 0 0.0 3.2 0.00 0.00 0.00 84 1014.4
20260905124550 25 0 0.0 0.0 0.00 0.00 0.00 88 1014.4
20260905123045 25 0 0.0 0.0 0.00 0.00 0.00 89 1014.2
20260905121544 24 0 0.0 1.6 0.00 0.00 0.00 89 1014.1
20260905120049 24 0 0.0 0.0 0.00 0.00 0.00 89 1014.0
20260905114546 24 0 0.0 0.0 0.00 0.00 0.00 89 1013.9
20260905113049 24 0 0.0 0.0 0.00 0.00 0.00 88 1013.7
20260905111612 24 0 0.0 0.0 0.00 0.00 0.00 88 1013.7
20260905110047 25 0 0.0 0.0 0.00 0.00 0.00 88 1013.5
20260905104546 25 0 0.0 0.0 0.00 0.00 0.00 87 1013.6
20260905103043 25 0 0.0 0.0 0.00 0.00 0.00 87 1013.6
20260905101550 25 0 0.0 0.0 0.00 0.00 0.00 86 1013.6
20260905100052 25 0 0.0 0.0 0.00 0.00 0.00 86 1013.7
20260905094550 25 0 0.0 0.0 0.00 0.00 0.00 86 1013.5
20260905093042 25 0 0.0 0.0 0.00 0.00 0.00 85 1013.6
20260905091541 25 0 0.0 0.0 0.00 0.00 0.00 84 1013.6
20260905090048 25 0 0.0 0.0 0.00 0.00 0.00 84 1013.6
20260905084553 26 0 0.0 0.0 0.00 0.00 0.00 83 1013.5
20260905083042 26 0 0.0 0.0 0.00 0.00 0.00 83 1013.6
20260905081549 26 0 0.0 0.0 0.00 0.00 0.00 82 1013.7
20260905080057 26 0 0.0 0.0 0.00 0.00 0.00 82 1013.8
20260905074548 26 0 0.0 0.0 0.00 0.00 0.00 81 1014.0
20260905073047 26 0 0.0 0.0 0.00 0.00 0.00 81 1013.9
20260905071550 26 0 0.0 0.0 0.00 0.00 0.00 81 1013.9
20260905070049 26 0 0.0 0.0 0.00 0.00 0.00 81 1014.1
20260905064546 26 0 0.0 0.0 0.00 0.00 0.00 80 1014.0
20260905063042 26 0 0.0 0.0 0.00 0.00 0.00 79 1014.0
20260905061552 26 0 0.0 0.0 0.00 0.00 0.00 79 1014.1
20260905060049 27 0 0.0 0.0 0.00 0.00 0.00 78 1014.1
20260905054548 27 0 0.0 0.0 0.00 0.00 0.00 78 1014.1
20260905053043 27 0 0.0 0.0 0.00 0.00 0.00 78 1014.2
20260905051544 27 0 0.0 0.0 0.00 0.00 0.00 78 1014.2
20260905050049 27 0 0.0 0.0 0.00 0.00 0.00 77 1014.0
20260905044549 27 0 0.0 0.0 0.00 0.00 0.00 77 1014.1
20260905043053 27 0 0.0 0.0 0.00 0.00 0.00 77 1014.1
20260905041550 27 0 0.0 0.0 0.00 0.00 0.00 76 1013.9